Back to catalog

INTELSAT 705

AliveCommunicationsGEO
NORAD 23528·PAYLOAD· XX

Launched Mar 22, 1995 from Cape Canaveral Space Force Station

Loading…

TLE

FreshSource: Space-Track

Epoch: Sep 14, 2026, 08:15 UTC

1 23528U 95013A   26257.34440499 -.00000065  00000-0  00000-0 0  9999
2 23528  11.8775  37.0228 0021386 122.0031 233.2797  0.98971637114416

Track INTELSAT 705 in real time with AllMySat

Download on the App Store